Location: Newark
(43.0658°N, 122.2322°W)
Time: 08:57:13
(UTC+00:00)

STARLINK-1707 - Pass Details

Date: 21 September 2020
Orbit: 379 x 380 km, 53.0° (Epoch: 24 October)

Event Time Altitude Azimuth Distance (km) Brightness Sun altitude
Exits shadow 12:02:40 15° 349° (NNW) 1,137 5.3 -21.0°
Maximum altitude 12:02:44 15° 350° (N) 1,137 5.3 -21.0°
Drops below altitude 10° 12:04:40 10° 28° (NNE) 1,401 6.4 -20.6°
Sets 12:07:20 0° 53° (NE) 2,255 8.1 -20.2°
